This is the latest recevied weather packets stored in our database for station/object W8BS. If no packets are shown the sender has not sent any weather packets the latest 10 day(s).
| Time | Temp. | Humidity | Pressure | Rain* | Wind** | Luminosity | Snow |
|---|---|---|---|---|---|---|---|
| 1778044965 | 17.78° C | 57% | 1009.1 hPa | 0 mm | - | 0 W/m² | - |
| 1778044662 | 17.22° C | 58% | 1009 hPa | 0 mm | - | 0 W/m² | - |
| 1778044358 | 17.78° C | 58% | 1009.1 hPa | 0 mm | - | 0 W/m² | - |
| 1778044056 | 17.78° C | 58% | 1009.4 hPa | 0 mm | - | 0 W/m² | - |
| 1778043753 | 17.78° C | 57% | 1009.4 hPa | 0 mm | - | 0 W/m² | - |
| 1778043450 | 17.78° C | 56% | 1009.2 hPa | 0 mm | - | 0 W/m² | - |
| 1778043146 | 17.78° C | 56% | 1009.1 hPa | 0 mm | - | 0 W/m² | - |
| 1778042844 | 17.78° C | 56% | 1009.3 hPa | 0 mm | - | 0 W/m² | - |
| 1778042541 | 17.78° C | 55% | 1009.5 hPa | 0 mm | - | 0 W/m² | - |
| 1778042238 | 17.78° C | 56% | 1009.4 hPa | 0 mm | - | 0 W/m² | - |
| 1778041936 | 17.78° C | 57% | 1009.4 hPa | 0 mm | - | 0 W/m² | - |
| 1778041635 | 17.78° C | 56% | 1009.4 hPa | 0 mm | - | 0 W/m² | - |
| 1778041333 | 17.78° C | 56% | 1009.4 hPa | 0 mm | - | 0 W/m² | - |
| 1778041031 | 17.78° C | 56% | 1009.3 hPa | 0 mm | - | 0 W/m² | - |
| 1778040728 | 17.78° C | 56% | 1009.2 hPa | 0 mm | - | 0 W/m² | - |
| 1778040426 | 17.78° C | 56% | 1009 hPa | 0 mm | - | 0 W/m² | - |
| 1778040122 | 17.78° C | 58% | 1009.3 hPa | 0 mm | - | 0 W/m² | - |
| 1778039819 | 17.78° C | 54% | 1009.2 hPa | 0 mm | - | 0 W/m² | - |
| 1778039516 | 17.78° C | 60% | 1009.2 hPa | 0 mm | - | 0 W/m² | - |
| 1778039212 | 17.78° C | 59% | 1009.1 hPa | 0 mm | - | 0 W/m² | - |
| 1778038909 | 17.22° C | 59% | 1009.1 hPa | 0 mm | - | 0 W/m² | - |
| 1778038607 | 17.22° C | 58% | 1009.2 hPa | 0 mm | - | 0 W/m² | - |
| 1778038303 | 17.22° C | 58% | 1009.2 hPa | 0 mm | - | 0 W/m² | - |
| 1778038001 | 17.22° C | 60% | 1009.2 hPa | 0 mm | - | 0 W/m² | - |
| 1778037698 | 16.67° C | 61% | 1009.1 hPa | 0 mm | - | 0 W/m² | - |
* Rain latest hour (hover to see other rain measurements)
** Current wind speed in m/s (hover to see current wind gust speed)